Weather History for Mammoth, CA

Change the Weather History Date:

Thursday, May 2, 2013

  Actual Average Record
Temperature  
Mean Temperature 50 °F -  
Max Temperature 69 °F 56 °F 84 °F (1999)
Min Temperature 30 °F 44 °F 23 °F (2011)
Degree Days  
Heating Degree Days 16    
Moisture  
Dew Point 5 °F    
Average Humidity 18    
Maximum Humidity 35    
Minimum Humidity 7    
Precipitation  
Precipitation 0.00 in - - ()
Sea Level Pressure  
Sea Level Pressure 30.45 in    
Wind  
Wind Speed 9 mph (West)    
Max Wind Speed 15 mph    
Max Gust Speed 18 mph    
Visibility 10 miles    
Events      
Averages and records for this station are not official NWS values.
T = Trace of Precipitation, MM = Missing Value Source: NWS Daily Summary

Daily Weather History Graph

Daily Weather History Graph

Search for Another Location

Airport:

Trip Planner

Search our weather history database for the weather conditions in past years. The results will help you decide how hot, cold, wet, or windy it might be!

Date:

Astronomy

May. 02, 2013 Rise Set
Actual Time 5:58 AM PDT 7:46 PM PDT
Civil Twilight 5:30 AM PDT 8:15 PM PDT
Nautical Twilight 4:55 AM PDT 8:49 PM PDT
Astronomical Twilight 4:19 AM PDT 9:26 PM PDT
Moon 1:40 AM PDT (5/2) 12:49 PM PDT (5/2)
Length of Visible Light 14h 44m
Length of Day
13h 48m
Waning Gibbous, 46% of the Moon is Illuminated
May 2
Waning Gibbous
May 9
New
May 17
First Quarter
May 24
Full
May 31
Last Quarter

Hourly Weather History & Observations

Time (PDT) Temp. Windchill Dew Point Humidity Pressure Visibility Wind Dir Wind Speed Gust Speed Precip Events Conditions
12:15 AM 42.8 °F 36.2 °F -4.0 °F 14% 30.48 in 10.0 mi WNW 12.7 mph - N/A   Clear
12:35 AM 41.0 °F 33.5 °F -2.2 °F 16% 30.48 in 10.0 mi WNW 13.8 mph 18.4 mph N/A   Clear
12:55 AM 41.0 °F 33.5 °F -2.2 °F 16% 30.48 in 10.0 mi West 13.8 mph 17.3 mph N/A   Clear
1:15 AM 41.0 °F 33.1 °F -2.2 °F 16% 30.49 in 10.0 mi WNW 15.0 mph - N/A   Clear
1:35 AM 41.0 °F 33.5 °F -2.2 °F 16% 30.49 in 10.0 mi West 13.8 mph - N/A   Clear
1:55 AM 39.2 °F 31.6 °F -2.2 °F 17% 30.49 in 10.0 mi WNW 12.7 mph 18.4 mph N/A   Clear
2:15 AM 35.6 °F 26.6 °F -0.4 °F 22% 30.49 in 10.0 mi WNW 13.8 mph - N/A   Clear
2:35 AM 37.4 °F 29.8 °F 1.4 °F 22% 30.49 in 10.0 mi WNW 11.5 mph - N/A   Clear
2:55 AM 35.6 °F 27.5 °F 3.2 °F 26% 30.49 in 10.0 mi West 11.5 mph - N/A   Clear
3:15 AM 35.6 °F 27.5 °F 5.0 °F 28% 30.49 in 10.0 mi West 11.5 mph - N/A   Clear
3:35 AM 35.6 °F 29.2 °F 5.0 °F 28% 30.49 in 10.0 mi West 8.1 mph - N/A   Clear
3:55 AM 32.0 °F 25.6 °F 5.0 °F 32% 30.49 in 10.0 mi WNW 6.9 mph - N/A   Clear
4:15 AM 33.8 °F 24.8 °F 5.0 °F 30% 30.49 in 10.0 mi West 12.7 mph - N/A   Clear
4:35 AM 33.8 °F 27.0 °F 5.0 °F 30% 30.49 in 10.0 mi West 8.1 mph - N/A   Clear
4:55 AM 33.8 °F 27.7 °F 5.0 °F 30% 30.49 in 10.0 mi WNW 6.9 mph - N/A   Clear
5:15 AM 30.2 °F 26.7 °F 5.0 °F 34% 30.49 in 10.0 mi North 3.5 mph - N/A   Clear
5:35 AM 30.2 °F 26.7 °F 5.0 °F 34% 30.49 in 10.0 mi WNW 3.5 mph - N/A   Clear
5:55 AM 30.2 °F - 5.0 °F 34% 30.50 in 10.0 mi Calm Calm - N/A   Clear
6:15 AM 30.2 °F 25.4 °F 5.0 °F 34% 30.50 in 10.0 mi WNW 4.6 mph - N/A   Clear
6:35 AM 30.2 °F - 5.0 °F 34% 30.51 in 10.0 mi Calm Calm - N/A   Clear
6:55 AM 32.0 °F - 6.8 °F 35% 30.51 in 10.0 mi Calm Calm - N/A   Clear
7:15 AM 35.6 °F - 6.8 °F 30% 30.52 in 10.0 mi Calm Calm - N/A   Clear
7:35 AM 39.2 °F - 6.8 °F 26% 30.52 in 10.0 mi Calm Calm - N/A   Clear
7:55 AM 41.0 °F - 6.8 °F 24% 30.52 in 10.0 mi Calm Calm - N/A   Clear
8:15 AM 44.6 °F - 5.0 °F 20% 30.52 in 10.0 mi North - - N/A   Clear
8:35 AM 48.2 °F - 10.4 °F 22% 30.51 in 10.0 mi SSE 4.6 mph - N/A   Clear
8:55 AM 50.0 °F - 10.4 °F 20% 30.51 in 10.0 mi North - - N/A   Clear
9:35 AM 53.6 °F - 8.6 °F 16% 30.51 in 10.0 mi North - - N/A   Clear
9:55 AM 55.4 °F - 8.6 °F 15% 30.50 in 10.0 mi SSE 4.6 mph - N/A   Clear
10:15 AM 55.4 °F - 8.6 °F 15% 30.50 in 10.0 mi North - - N/A   Clear
10:35 AM 57.2 °F - 8.6 °F 14% 30.49 in 10.0 mi SSE 6.9 mph - N/A   Clear
10:55 AM 59.0 °F - 5.0 °F 12% 30.49 in 10.0 mi North - - N/A   Clear
11:15 AM 59.0 °F - 3.2 °F 11% 30.49 in 10.0 mi North - - N/A   Clear
11:35 AM 60.8 °F - 3.2 °F 10% 30.48 in 10.0 mi North - - N/A   Clear
11:55 AM 60.8 °F - 3.2 °F 10% 30.48 in 10.0 mi East 3.5 mph - N/A   Clear
12:15 PM 60.8 °F - 3.2 °F 10% 30.47 in 10.0 mi ESE 5.8 mph - N/A   Clear
12:35 PM 62.6 °F - 6.8 °F 11% 30.46 in 10.0 mi North - - N/A   Clear
12:55 PM 64.4 °F - 5.0 °F 10% 30.45 in 10.0 mi North - - N/A   Clear
1:15 PM 66.2 °F - 5.0 °F 9% 30.45 in 10.0 mi North - - N/A   Clear
1:35 PM 66.2 °F - 5.0 °F 9% 30.44 in 10.0 mi SE 6.9 mph - N/A   Clear
1:55 PM 66.2 °F - 3.2 °F 8% 30.43 in 10.0 mi ENE 3.5 mph - N/A   Clear
2:15 PM 68.0 °F - 5.0 °F 8% 30.43 in 10.0 mi North - - N/A   Clear
2:35 PM 68.0 °F - 5.0 °F 8% 30.42 in 10.0 mi North - - N/A   Clear
2:55 PM 69.8 °F - 3.2 °F 7% 30.42 in 10.0 mi North - - N/A   Clear
3:15 PM 69.8 °F - 5.0 °F 8% 30.40 in 10.0 mi East 4.6 mph - N/A   Clear
3:35 PM 68.0 °F - 3.2 °F 8% 30.40 in 10.0 mi North - - N/A   Clear
3:55 PM 69.8 °F - 5.0 °F 8% 30.39 in 10.0 mi ESE 8.1 mph - N/A   Clear
4:15 PM 69.8 °F - 5.0 °F 8% 30.38 in 10.0 mi ESE 9.2 mph 16.1 mph N/A   Clear
4:35 PM 68.0 °F - 5.0 °F 8% 30.38 in 10.0 mi SE 5.8 mph - N/A   Clear
4:55 PM 68.0 °F - 3.2 °F 8% 30.38 in 10.0 mi SE 9.2 mph - N/A   Clear
5:15 PM 68.0 °F - 3.2 °F 8% 30.38 in 10.0 mi North - - N/A   Clear
5:35 PM 68.0 °F - 3.2 °F 8% 30.38 in 10.0 mi ESE 10.4 mph - N/A   Clear
5:55 PM 66.2 °F - 1.4 °F 8% 30.38 in 10.0 mi SE 8.1 mph - N/A   Clear
6:15 PM 64.4 °F - 3.2 °F 9% 30.38 in 10.0 mi SE 8.1 mph - N/A   Clear
6:35 PM 64.4 °F - 3.2 °F 9% 30.38 in 10.0 mi North - - N/A   Clear
6:55 PM 62.6 °F - 5.0 °F 10% 30.38 in 10.0 mi SE 5.8 mph - N/A   Clear
7:15 PM 60.8 °F - 1.4 °F 9% 30.38 in 10.0 mi North - - N/A   Clear
7:35 PM 57.2 °F - 1.4 °F 10% 30.38 in 10.0 mi ESE 4.6 mph - N/A   Clear
7:55 PM 55.4 °F - 3.2 °F 12% 30.38 in 10.0 mi East 4.6 mph - N/A   Clear
8:15 PM 53.6 °F - 5.0 °F 14% 30.38 in 10.0 mi Calm Calm - N/A   Clear
8:35 PM 48.2 °F - 1.4 °F 15% 30.40 in 10.0 mi North - - N/A   Clear
8:55 PM 48.2 °F - 6.8 °F 19% 30.40 in 10.0 mi West 5.8 mph - N/A   Clear
9:15 PM 44.6 °F 40.2 °F 8.6 °F 23% 30.40 in 10.0 mi WNW 8.1 mph - N/A   Clear
9:35 PM 41.0 °F 35.8 °F 8.6 °F 26% 30.41 in 10.0 mi WNW 8.1 mph - N/A   Clear
9:55 PM 39.2 °F 35.9 °F 8.6 °F 28% 30.41 in 10.0 mi NW 4.6 mph - N/A   Clear
10:15 PM 39.2 °F 35.9 °F 10.4 °F 31% 30.41 in 10.0 mi NW 4.6 mph - N/A   Clear
10:55 PM 39.2 °F 35.9 °F 10.4 °F 31% 30.41 in 10.0 mi NW 4.6 mph - N/A   Clear
11:15 PM 39.2 °F 37.0 °F 10.4 °F 31% 30.41 in 10.0 mi NW 3.5 mph - N/A   Clear
11:35 PM 37.4 °F 34.9 °F 10.4 °F 33% 30.40 in 10.0 mi NW 3.5 mph - N/A   Clear
11:55 PM 37.4 °F 34.9 °F 10.4 °F 33% 30.41 in 10.0 mi WNW 3.5 mph - N/A   Clear